STARLINK-2563, 48410

Orbit data source: Space-Track

STARLINK-2563, 48410 is a payload satellite owned by SpaceX/Seattle (US) in LEO that was launched on Tue, 04 May 2021 UTC via an FALCON 9 launch vehicle from the Air Force Eastern Test Range (AFETR). Payload-class satellites include a variety of spacecraft equipped with specific instruments for various scientific and technological missions. These include communications satellites like Starlink; space stations such as the ISS; scientific satellites like the Hubble; Earth observation satellites from companies like Planet Labs, Umbra, and HawkEye 360; GPS; miniature CubeSats for education and research; and military/defense satellites.

Loading next visibility...
Identifier
48410, 2021-038BK
Orbit
LEO
Country
Flag of USUS
Related business
Manufacturer
SpaceX/Seattle
Mission
Operational Commercial Communications
Bus & Motor
STARLINK, Unknown motor
Mass
260 kg wet, ~248 kg dry
Launch date (UTC)
2021-05-04 (5 years ago)
Launch vehicle
FALCON 9
Launch site
Air Force Eastern Test Range (AFETR)
Object type
Payload
Rocket body
Debris
Shape & HBR
Box + 1 Pan, 10.1 m
Radar Cross Section
13.562 m², Large (>1 m²)

Expand to show TLE details & history
Last TLE update: 2 days ago

TLE from 2 days ago
0 STARLINK-2563
1 48410U 21038BK  26171.34496454  .00001026  00000-0  44824-4 0  9992
2 48410  53.1599 178.9985 0001129  97.9917 262.1213 15.31697649283677
Epoch: 2026-06-20T08:16Z
TLE epoch observation values (Epoch: 2026-06-20T08:16:44.936Z)
Latitude
0.00002°
Longitude
146.25036°
Altitude
471.753 km
Speed
7.631 km/s
True Right ascension
11h 55m 59s
True Declination
0° 00' 00"
Sunlit
Object was in daylight at epoch
Visualization orbit readout
Latitude
Unknown
Longitude
Unknown
Altitude
Unknown
Speed
Unknown
Apparent Right ascension
Unknown
Apparent Declination
Unknown
Sunlit
N/A
Visualization observer readout
Local Sidereal Time
21:32:13
Azimuth
Unknown
Elevation
Unknown
Doppler factor
Unknown
Orbital elements
Apogee altitude
471.777 km
Perigee altitude
470.23 km
Semi-major axis
6,849.141 km
Eccentricity
0.00011
Inclination
53.1599°
RAAN
178.9985°
Arg. of periapsis
97.9917°
True anomaly
262.10848°
Mean anomaly
262.1213°
Eccentric anomaly
262.11489°
Mean motion
3.82903 °/min
Orbital period
94.02 mins
BSTAR
0.000044824
Loading maneuver chart data...
Computing Atmospheric mass density...

Documentation

Showing up to 5 results
|